EN

Hourly Weather Ouhans

Today, 28 February, Sunday

Time Temperature Precipitation Wind Pressure Humidity
00:00 -1°C° 0 mm 3 mps 702 mmHg 87%
01:00 -1°C° 0 mm 3 mps 702 mmHg 87%
02:00 -1°C° 0 mm 3 mps 702 mmHg 88%
03:00 -1°C° 0 mm 2 mps 702 mmHg 89%
04:00 -1°C° 0 mm 2 mps 702 mmHg 89%
05:00 -2°C° 0 mm 2 mps 702 mmHg 90%
06:00 -2°C° 0 mm 2 mps 702 mmHg 91%
07:00 +1°C° 0 mm 2 mps 702 mmHg 85%
08:00 +3°C° 0 mm 1 mps 702 mmHg 79%
09:00 +5°C° 0 mm 1 mps 703 mmHg 73%
10:00 +7°C° 0 mm 1 mps 703 mmHg 68%
11:00 +8°C° 0 mm 1 mps 703 mmHg 63%
12:00 +10°C° 0 mm 1 mps 703 mmHg 59%
13:00 +10°C° 0 mm 1 mps 703 mmHg 61%
14:00 +10°C° 0 mm 1 mps 702 mmHg 63%
15:00 +9°C° 0 mm 2 mps 702 mmHg 66%
16:00 +7°C° 0 mm 2 mps 702 mmHg 73%
17:00 +6°C° 0 mm 1 mps 702 mmHg 80%
18:00 +4°C° 0 mm 1 mps 702 mmHg 87%
19:00 +4°C° 0 mm 1 mps 702 mmHg 86%
20:00 +3°C° 0 mm 1 mps 702 mmHg 85%
21:00 +3°C° 0 mm 1 mps 702 mmHg 85%
22:00 +3°C° 0 mm 1 mps 702 mmHg 85%
23:00 +3°C° 0 mm 1 mps 702 mmHg 85%

Tomorrow, 1 March, Monday

Time Temperature Precipitation Wind Pressure Humidity
00:00 +2°C° 0 mm 1 mps 702 mmHg 84%
01:00 +2°C° 0 mm 1 mps 702 mmHg 84%
02:00 +2°C° 0 mm 1 mps 702 mmHg 84%
03:00 +2°C° 0 mm 1 mps 701 mmHg 84%
04:00 +2°C° 0 mm 1 mps 702 mmHg 85%
05:00 +2°C° 0 mm 1 mps 702 mmHg 85%
06:00 +2°C° 0 mm 1 mps 702 mmHg 85%
07:00 +4°C° 0 mm 1 mps 702 mmHg 79%
08:00 +6°C° 0 mm 1 mps 702 mmHg 72%
09:00 +7°C° 0 mm 0 mps 703 mmHg 66%
10:00 +9°C° 0 mm 0 mps 703 mmHg 61%
11:00 +11°C° 0 mm 0 mps 703 mmHg 57%
12:00 +13°C° 0 mm 1 mps 703 mmHg 52%
13:00 +13°C° 0 mm 1 mps 703 mmHg 54%
14:00 +13°C° 0 mm 1 mps 702 mmHg 57%
15:00 +12°C° 0 mm 1 mps 702 mmHg 59%
16:00 +10°C° 0 mm 1 mps 702 mmHg 68%
17:00 +8°C° 0 mm 1 mps 702 mmHg 76%
18:00 +6°C° 0 mm 1 mps 702 mmHg 85%
19:00 +6°C° 0 mm 1 mps 702 mmHg 83%
20:00 +5°C° 0 mm 1 mps 702 mmHg 82%
21:00 +5°C° 0 mm 1 mps 703 mmHg 80%
22:00 +5°C° 0 mm 1 mps 703 mmHg 77%
23:00 +5°C° 0 mm 1 mps 703 mmHg 75%

Day after tomorrow, 2 March, Tuesday

Time Temperature Precipitation Wind Pressure Humidity
00:00 +4°C° 0 mm 1 mps 703 mmHg 73%
01:00 +4°C° 0 mm 1 mps 703 mmHg 72%
02:00 +4°C° 0 mm 1 mps 703 mmHg 70%
03:00 +4°C° 0 mm 1 mps 703 mmHg 69%
04:00 +4°C° 0 mm 1 mps 703 mmHg 69%
05:00 +4°C° 0 mm 1 mps 703 mmHg 69%
06:00 +3°C° 0 mm 1 mps 703 mmHg 69%
07:00 +4°C° 0 mm 0 mps 703 mmHg 64%
08:00 +6°C° 0 mm 0 mps 704 mmHg 59%
09:00 +9°C° 0 mm 0 mps 704 mmHg 54%
10:00 +10°C° 0 mm 0 mps 704 mmHg 50%
11:00 +12°C° 0 mm 0 mps 704 mmHg 46%
12:00 +14°C° 0 mm 0 mps 704 mmHg 42%
13:00 +13°C° 0 mm 0 mps 704 mmHg 43%
14:00 +13°C° 0 mm 0 mps 704 mmHg 45%
15:00 +14°C° 0 mm 1 mps 704 mmHg 47%
16:00 +11°C° 0 mm 0 mps 704 mmHg 55%
17:00 +9°C° 0 mm 0 mps 703 mmHg 63%
18:00 +6°C° 0 mm 0 mps 703 mmHg 72%
19:00 +6°C° 0 mm 0 mps 703 mmHg 70%
20:00 +7°C° 0 mm 1 mps 704 mmHg 68%
21:00 +6°C° 0 mm 1 mps 704 mmHg 66%
22:00 +6°C° 0 mm 1 mps 704 mmHg 64%
23:00 +6°C° 0 mm 1 mps 704 mmHg 61%

3 March, Wednesday

Time Temperature Precipitation Wind Pressure Humidity
00:00 +6°C° 0 mm 1 mps 704 mmHg 59%
01:00 +6°C° 0 mm 1 mps 704 mmHg 58%
02:00 +6°C° 0 mm 1 mps 704 mmHg 58%
03:00 +6°C° 0 mm 1 mps 704 mmHg 57%
04:00 +5°C° 0 mm 1 mps 704 mmHg 57%
05:00 +5°C° 0 mm 1 mps 704 mmHg 57%
06:00 +5°C° 0 mm 1 mps 703 mmHg 56%
07:00 +6°C° 0 mm 0 mps 704 mmHg 54%
08:00 +8°C° 0 mm 0 mps 704 mmHg 51%
09:00 +10°C° 0 mm 0 mps 704 mmHg 48%
10:00 +12°C° 0 mm 1 mps 704 mmHg 46%
11:00 +13°C° 0 mm 1 mps 704 mmHg 43%
12:00 +14°C° 0 mm 1 mps 704 mmHg 41%
13:00 +14°C° 0 mm 1 mps 703 mmHg 44%
14:00 +14°C° 0 mm 1 mps 703 mmHg 48%
15:00 +13°C° 0 mm 1 mps 702 mmHg 51%
16:00 +11°C° 0 mm 1 mps 702 mmHg 60%
17:00 +9°C° 0 mm 1 mps 701 mmHg 70%
18:00 +6°C° 0 mm 0 mps 701 mmHg 79%
19:00 +6°C° 0 mm 0 mps 701 mmHg 79%
20:00 +6°C° 0 mm 0 mps 701 mmHg 79%
21:00 +7°C° 0 mm 1 mps 701 mmHg 80%
22:00 +6°C° 0 mm 1 mps 701 mmHg 79%
23:00 +6°C° 0 mm 1 mps 700 mmHg 78%

4 March, Thursday

Time Temperature Precipitation Wind Pressure Humidity
00:00 +6°C° 0 mm 1 mps 700 mmHg 77%
01:00 +5°C° 0 mm 1 mps 700 mmHg 77%
02:00 +5°C° 0 mm 1 mps 699 mmHg 76%
03:00 +5°C° 0 mm 1 mps 699 mmHg 76%
04:00 +5°C° 0 mm 1 mps 699 mmHg 76%
05:00 +5°C° 0 mm 1 mps 699 mmHg 77%
06:00 +5°C° 0 mm 1 mps 699 mmHg 77%
07:00 +6°C° 0 mm 1 mps 699 mmHg 75%
08:00 +7°C° 0 mm 1 mps 699 mmHg 72%
09:00 +8°C° 0 mm 1 mps 699 mmHg 70%
10:00 +9°C° 0.1 mm 1 mps 699 mmHg 71%
11:00 +10°C° 0.1 mm 1 mps 699 mmHg 72%
12:00 +9°C° 0.1 mm 2 mps 698 mmHg 73%
13:00 +9°C° 0.1 mm 2 mps 698 mmHg 72%
14:00 +10°C° 0.1 mm 2 mps 698 mmHg 71%
15:00 +10°C° 0.1 mm 2 mps 697 mmHg 70%
16:00 +9°C° 0.1 mm 1 mps 697 mmHg 78%
17:00 +8°C° 0.1 mm 1 mps 697 mmHg 85%
18:00 +5°C° 0.1 mm 0 mps 697 mmHg 92%
19:00 +5°C° 0 mm 0 mps 697 mmHg 93%
20:00 +4°C° 0 mm 0 mps 697 mmHg 94%
21:00 +4°C° 0 mm 0 mps 697 mmHg 95%
22:00 +4°C° 0 mm 0 mps 697 mmHg 95%
23:00 +4°C° 0 mm 0 mps 697 mmHg 95%

5 March, Friday

Time Temperature Precipitation Wind Pressure Humidity
00:00 +3°C° 0 mm 0 mps 697 mmHg 95%
01:00 +3°C° 0 mm 0 mps 697 mmHg 95%
02:00 +3°C° 0 mm 0 mps 697 mmHg 94%
03:00 +3°C° 0 mm 0 mps 697 mmHg 94%
04:00 +3°C° 0 mm 0 mps 697 mmHg 94%
05:00 +4°C° 0 mm 1 mps 697 mmHg 95%
06:00 +4°C° 0 mm 1 mps 697 mmHg 95%
07:00 +4°C° 0 mm 1 mps 697 mmHg 91%
08:00 +5°C° 0 mm 1 mps 697 mmHg 88%
09:00 +6°C° 0 mm 1 mps 698 mmHg 84%
10:00 +5°C° 0 mm 2 mps 698 mmHg 82%
11:00 +6°C° 0 mm 2 mps 698 mmHg 80%
12:00 +6°C° 0 mm 2 mps 698 mmHg 78%
13:00 +6°C° 0 mm 2 mps 697 mmHg 79%
14:00 +5°C° 0 mm 2 mps 697 mmHg 80%
15:00 +5°C° 0 mm 2 mps 697 mmHg 81%
16:00 +4°C° 0 mm 2 mps 697 mmHg 84%
17:00 +3°C° 0 mm 2 mps 698 mmHg 87%
18:00 +4°C° 0 mm 1 mps 698 mmHg 91%
19:00 +3°C° 0 mm 1 mps 698 mmHg 90%
20:00 +3°C° 0 mm 1 mps 698 mmHg 90%
21:00 +3°C° 0 mm 1 mps 699 mmHg 90%
22:00 +2°C° 0 mm 1 mps 699 mmHg 90%
23:00 +2°C° 0 mm 1 mps 699 mmHg 91%
Show more

We Need Your Consent

Meteoprog and our Service Providers may store and access personal data such as cookies, device identifiers or other similar technologies on your device and process such data to personalise content and ads, as well as provide social media features and to analyse the traffic.

  • Store and/or access information on your device

    Cookies, device identifiers or other information can be stored or accessed on your device for the purposes indicated above.

  • Personalised ads and content, ad and content measurement, audience insights, and products development

    Ads and content can be personalised based on a profile. More data can be added to better personalise ads and content. Ad and content performance can be measured. Insights about the audience who saw the ads and content can be derived. Such data can be used to develop or improve user’s experience, systems and software.

By clicking ‘I Agree’ you will allow the use of indicated cookies, device identifiers, web beacons or other similar technologies. Your settings can be changed in the browser on your device.

For certain purposes, legitimate interests may be relied on, rather than consent. You can read more about this in our Privacy and Cookie Policy.